This demonstration page uses our WeatherBlox Daily Observations layout. Learn more.

Left ArrowRight Arrow

Hourly Observations for September 19, 2022

Temp ( °F °C ) Dew Point ( °F °C ) Humidity (%) Winds ( mph kmh ) Pressure ( in mb ) Visibility ( mi km ) Precip ( " mm )
12:15 am 00:15 Clear 72 22 66 19 83 83 S 6 9 29.94 1014 10 16 0.00 0.00
12:35 am 00:35 Clear 72 22 66 19 83 83 SSW 6 9 29.96 1015 10 16 0.00 0.00
12:55 am 00:55 Clear 72 22 66 19 83 83 S 6 9 29.96 1015 10 16 0.00 0.00
1:15 am 01:15 Clear 70 21 66 19 88 88 S 6 9 29.97 1015 10 16 0.00 0.00
1:35 am 01:35 Partly Cloudy 70 21 66 19 88 88 S 6 9 29.95 1014 10 16 0.00 0.00
1:55 am 01:55 Partly Cloudy 70 21 66 19 88 88 S 6 9 29.95 1014 10 16 0.00 0.00
2:15 am 02:15 Clear 70 21 66 19 88 88 S 5 7 29.93 1014 10 16 0.00 0.00
2:35 am 02:35 Clear 68 20 66 19 94 94 S 5 7 29.95 1014 10 16 0.00 0.00
2:55 am 02:55 Mostly Cloudy 68 20 68 20 100 100 SW 5 7 29.99 1015 10 16 0.00 0.00
3:15 am 03:15 Mostly Cloudy 68 20 68 20 100 100 S 3 6 29.98 1015 10 16 0.00 0.00
3:35 am 03:35 Mostly Cloudy 68 20 68 20 100 100 S 5 7 29.97 1015 10 16 0.00 0.00
3:55 am 03:55 Cloudy 68 20 68 20 100 100 WNW 12 19 30.02 1017 7 11 0.00 0.00
4:15 am 04:15 Cloudy 68 20 68 20 100 100 Calm 30.00 1016 5 8 0.00 0.00
4:35 am 04:35 Cloudy 66 19 66 19 100 100 SSW 5 7 30.00 1016 3 4 0.00 0.00
4:55 am 04:55 Cloudy 68 20 68 20 100 100 S 12 19 29.94 1014 5 8 0.00 0.00
5:15 am 05:15 Mostly Cloudy 68 20 68 20 100 100 SSW 25 41 29.92 1013 7 11 0.00 0.00
5:35 am 05:35 Partly Cloudy 68 20 68 20 100 100 SSW 12 19 29.94 1014 10 16 0.00 0.00
5:55 am 05:55 Clear 68 20 68 20 100 100 SW 9 15 29.93 1013 10 16 0.00 0.00
6:15 am 06:15 Clear 68 20 68 20 100 100 SSW 9 15 29.94 1014 10 16 0.00 0.00
6:35 am 06:35 Partly Cloudy 68 20 68 20 100 100 SSW 10 17 29.94 1014 10 16 0.00 0.00
6:55 am 06:55 Cloudy 68 20 68 20 100 100 SSW 6 9 29.95 1014 10 16 0.00 0.00
7:15 am 07:15 Cloudy 68 20 68 20 100 100 S 9 15 29.96 1014 10 16 0.00 0.00
7:35 am 07:35 Mostly Cloudy 68 20 68 20 100 100 S 8 13 29.96 1014 10 16 0.00 0.00
7:55 am 07:55 Mostly Cloudy 68 20 68 20 100 100 SSW 8 13 29.96 1014 10 16 0.00 0.00
8:15 am 08:15 Cloudy 68 20 68 20 100 100 SSW 8 13 29.97 1015 10 16 0.00 0.00
8:35 am 08:35 Mostly Cloudy 68 20 68 20 100 100 SW 7 11 29.97 1015 10 16 0.00 0.00
8:55 am 08:55 Mostly Cloudy 70 21 70 21 100 100 SW 6 9 29.98 1015 10 16 0.00 0.00
9:15 am 09:15 Mostly Cloudy 70 21 70 21 100 100 SW 8 13 29.98 1015 10 16 0.00 0.00
9:35 am 09:35 Partly Cloudy 72 22 72 22 100 100 WSW 8 13 29.97 1015 10 16 0.00 0.00
9:55 am 09:55 Partly Cloudy 73 23 73 23 100 100 WSW 12 19 29.97 1015 10 16 0.00 0.00
10:15 am 10:15 Mostly Cloudy 75 24 72 22 89 89 WSW 12 19 29.97 1015 10 16 0.00 0.00
10:35 am 10:35 Cloudy 75 24 72 22 89 89 WSW 10 17 29.96 1014 10 16 0.00 0.00
10:55 am 10:55 Cloudy 77 25 72 22 83 83 W 14 22 29.96 1015 10 16 0.00 0.00
11:15 am 11:15 Cloudy 75 24 70 21 83 83 W 16 26 29.97 1015 10 16 0.00 0.00
11:35 am 11:35 Cloudy 75 24 72 22 89 89 W 13 20 29.97 1015 10 16 0.00 0.00
11:55 am 11:55 Cloudy 77 25 72 22 83 83 W 12 19 29.96 1015 10 16 0.00 0.00
12:15 pm 12:15 Cloudy 77 25 70 21 79 79 W 9 15 29.96 1015 10 16 0.00 0.00
12:35 pm 12:35 Cloudy 73 23 72 22 94 94 WNW 12 19 29.97 1015 10 16 0.00 0.00
12:55 pm 12:55 Cloudy 73 23 72 22 94 94 WNW 10 17 29.98 1015 10 16 0.00 0.00
1:15 pm 13:15 Cloudy 73 23 72 22 94 94 WNW 10 17 29.97 1015 10 16 0.00 0.00
1:35 pm 13:35 Cloudy 75 24 72 22 89 89 W 8 13 29.97 1015 10 16 0.00 0.00
1:55 pm 13:55 Cloudy 75 24 72 22 89 89 W 7 11 29.97 1015 10 16 0.00 0.00
2:15 pm 14:15 Cloudy 75 24 72 22 89 89 WNW 9 15 29.97 1015 10 16 0.00 0.00
2:35 pm 14:35 Cloudy 73 23 72 22 94 94 WNW 8 13 29.97 1015 10 16 0.00 0.00
2:55 pm 14:55 Cloudy 73 23 72 22 94 94 WNW 7 11 29.97 1015 10 16 0.00 0.00
3:15 pm 15:15 Mostly Cloudy 77 25 72 22 83 83 W 6 9 29.95 1014 10 16 0.00 0.00
3:35 pm 15:35 Partly Cloudy 77 25 72 22 83 83 W 7 11 29.95 1014 10 16 0.00 0.00
3:55 pm 15:55 Partly Cloudy 79 26 72 22 79 79 W 7 11 29.94 1014 10 16 0.00 0.00
4:15 pm 16:15 Partly Cloudy 79 26 70 21 74 74 WSW 6 9 29.95 1014 10 16 0.00 0.00
4:35 pm 16:35 Partly Cloudy 79 26 70 21 74 74 W 5 7 29.94 1014 10 16 0.00 0.00
4:55 pm 16:55 Partly Cloudy 79 26 70 21 74 74 W 3 6 29.95 1014 10 16 0.00 0.00
5:15 pm 17:15 Mostly Cloudy 81 27 70 21 70 70 WNW 5 7 29.95 1014 10 16 0.00 0.00
5:35 pm 17:35 Partly Cloudy 79 26 70 21 74 74 W 3 6 29.95 1014 10 16 0.00 0.00
5:55 pm 17:55 Sunny 79 26 68 20 70 70 W 5 7 29.95 1014 10 16 0.00 0.00
6:15 pm 18:15 Partly Cloudy 79 26 68 20 70 70 W 6 9 29.95 1014 10 16 0.00 0.00
6:35 pm 18:35 Partly Cloudy 79 26 68 20 70 70 W 3 6 29.95 1014 10 16 0.00 0.00
6:55 pm 18:55 Sunny 79 26 68 20 70 70 WSW 5 7 29.95 1014 10 16 0.00 0.00
7:15 pm 19:15 Sunny 77 25 68 20 74 74 WSW 5 7 29.96 1015 10 16 0.00 0.00
7:35 pm 19:35 Sunny 75 24 70 21 83 83 WSW 3 6 29.97 1015 10 16 0.00 0.00
7:55 pm 19:55 Clear 72 22 70 21 94 94 WSW 3 6 29.98 1015 10 16 0.00 0.00
8:15 pm 20:15 Clear 70 21 70 21 100 100 Calm 29.98 1015 10 16 0.00 0.00
8:35 pm 20:35 Clear 68 20 68 20 100 100 Calm 29.99 1015 10 16 0.00 0.00
8:55 pm 20:55 Clear 68 20 68 20 100 100 S 3 6 29.99 1015 10 16 0.00 0.00
9:15 pm 21:15 Clear 68 20 68 20 100 100 S 3 6 30.00 1016 10 16 0.00 0.00
9:35 pm 21:35 Clear 68 20 68 20 100 100 S 3 6 30.00 1016 10 16 0.00 0.00
9:55 pm 21:55 Clear 68 20 68 20 100 100 SW 3 6 30.01 1016 10 16 0.00 0.00
10:15 pm 22:15 Clear 68 20 68 20 100 100 Calm 30.01 1016 10 16 0.00 0.00
10:35 pm 22:35 Clear 66 19 66 19 100 100 Calm 30.01 1016 10 16 0.00 0.00
10:55 pm 22:55 Clear 66 19 66 19 100 100 Calm 30.01 1016 10 16 0.00 0.00
11:15 pm 23:15 Clear 64 18 64 18 100 100 Calm 30.03 1017 10 16 0.00 0.00
11:35 pm 23:35 Clear 64 18 64 18 100 100 Calm 30.03 1017 7 11 0.00 0.00
11:55 pm 23:55 Clear 63 17 63 17 100 100 Calm 30.03 1017 5 8 0.00 0.00

Powered by AerisWeather